When you browse on this site, cookies collect data to enhance your experience and personalize the content and advertising you see.
Visit our Privacy Policy to learn more. By continuing to use the site, you agree to this use of cookies and data.
EN

Hourly Weather Svitavy

Today, 15 July, Wednesday

Time Temperature Precipitation Wind Pressure Humidity
00:00 +13°C° 0 mm 2 mps 721 mmHg 89%
01:00 +12°C° 0 mm 2 mps 721 mmHg 89%
02:00 +12°C° 0 mm 2 mps 721 mmHg 89%
03:00 +12°C° 0 mm 2 mps 721 mmHg 88%
04:00 +12°C° 0 mm 2 mps 721 mmHg 88%
05:00 +13°C° 0 mm 2 mps 721 mmHg 86%
06:00 +14°C° 0 mm 2 mps 721 mmHg 84%
07:00 +15°C° 0 mm 2 mps 721 mmHg 82%
08:00 +16°C° 0 mm 3 mps 721 mmHg 78%
09:00 +18°C° 0 mm 3 mps 721 mmHg 75%
10:00 +20°C° 0 mm 3 mps 721 mmHg 72%
11:00 +20°C° 0.5 mm 3 mps 721 mmHg 70%
12:00 +21°C° 0.5 mm 3 mps 721 mmHg 68%
13:00 +22°C° 0.5 mm 3 mps 721 mmHg 67%
14:00 +21°C° 0.9 mm 3 mps 720 mmHg 69%
15:00 +21°C° 0.9 mm 3 mps 720 mmHg 71%
16:00 +21°C° 0.9 mm 3 mps 720 mmHg 73%
17:00 +20°C° 1.1 mm 2 mps 720 mmHg 78%
18:00 +19°C° 1.1 mm 2 mps 720 mmHg 82%
19:00 +18°C° 1.1 mm 2 mps 720 mmHg 86%
20:00 +17°C° 2 mm 2 mps 720 mmHg 90%
21:00 +16°C° 2 mm 2 mps 720 mmHg 93%
22:00 +15°C° 2 mm 2 mps 721 mmHg 97%
23:00 +15°C° 0.1 mm 2 mps 721 mmHg 97%

Tomorrow, 16 July, Thursday

Time Temperature Precipitation Wind Pressure Humidity
00:00 +13°C° 0.1 mm 3 mps 721 mmHg 96%
01:00 +13°C° 0.1 mm 3 mps 721 mmHg 96%
02:00 +12°C° 0 mm 3 mps 721 mmHg 96%
03:00 +11°C° 0 mm 3 mps 721 mmHg 96%
04:00 +11°C° 0 mm 3 mps 721 mmHg 96%
05:00 +11°C° 0 mm 3 mps 722 mmHg 94%
06:00 +12°C° 0 mm 3 mps 722 mmHg 92%
07:00 +13°C° 0 mm 3 mps 722 mmHg 90%
08:00 +14°C° 0.3 mm 3 mps 722 mmHg 87%
09:00 +16°C° 0.3 mm 3 mps 722 mmHg 84%
10:00 +17°C° 0.3 mm 3 mps 722 mmHg 80%
11:00 +18°C° 0.3 mm 4 mps 722 mmHg 76%
12:00 +18°C° 0.3 mm 4 mps 722 mmHg 72%
13:00 +19°C° 0.3 mm 4 mps 722 mmHg 68%
14:00 +19°C° 0.2 mm 4 mps 722 mmHg 69%
15:00 +19°C° 0.2 mm 4 mps 722 mmHg 71%
16:00 +19°C° 0.2 mm 4 mps 721 mmHg 72%
17:00 +18°C° 0.3 mm 4 mps 721 mmHg 77%
18:00 +17°C° 0.3 mm 3 mps 722 mmHg 81%
19:00 +16°C° 0.3 mm 2 mps 722 mmHg 86%
20:00 +15°C° 0.1 mm 2 mps 722 mmHg 87%
21:00 +14°C° 0.1 mm 2 mps 722 mmHg 88%
22:00 +13°C° 0.1 mm 1 mps 722 mmHg 89%
23:00 +12°C° 0 mm 1 mps 722 mmHg 89%

Day after tomorrow, 17 July, Friday

Time Temperature Precipitation Wind Pressure Humidity
00:00 +11°C° 0 mm 1 mps 722 mmHg 90%
01:00 +11°C° 0 mm 1 mps 722 mmHg 91%
02:00 +11°C° 0 mm 1 mps 722 mmHg 91%
03:00 +10°C° 0 mm 1 mps 721 mmHg 91%
04:00 +10°C° 0 mm 1 mps 721 mmHg 91%
05:00 +11°C° 0 mm 1 mps 721 mmHg 89%
06:00 +13°C° 0 mm 1 mps 722 mmHg 87%
07:00 +14°C° 0 mm 1 mps 722 mmHg 85%
08:00 +15°C° 0.3 mm 2 mps 722 mmHg 81%
09:00 +16°C° 0.3 mm 2 mps 722 mmHg 77%
10:00 +17°C° 0.3 mm 2 mps 722 mmHg 73%
11:00 +17°C° 0.4 mm 3 mps 722 mmHg 73%
12:00 +17°C° 0.4 mm 3 mps 722 mmHg 73%
13:00 +18°C° 0.4 mm 4 mps 722 mmHg 74%
14:00 +17°C° 0.4 mm 3 mps 722 mmHg 78%
15:00 +16°C° 0.4 mm 3 mps 722 mmHg 83%
16:00 +14°C° 0.4 mm 3 mps 721 mmHg 88%
17:00 +13°C° 0 mm 3 mps 721 mmHg 90%
18:00 +14°C° 0 mm 2 mps 721 mmHg 91%
19:00 +14°C° 0 mm 2 mps 721 mmHg 92%
20:00 +13°C° 0 mm 2 mps 721 mmHg 93%
21:00 +12°C° 0 mm 1 mps 722 mmHg 95%
22:00 +11°C° 0 mm 1 mps 722 mmHg 96%
23:00 +11°C° 0 mm 1 mps 722 mmHg 96%

18 July, Saturday

Time Temperature Precipitation Wind Pressure Humidity
00:00 +11°C° 0 mm 1 mps 722 mmHg 96%
01:00 +11°C° 0 mm 1 mps 722 mmHg 96%
02:00 +10°C° 0 mm 1 mps 722 mmHg 96%
03:00 +10°C° 0 mm 1 mps 722 mmHg 95%
04:00 +10°C° 0 mm 1 mps 722 mmHg 95%
05:00 +12°C° 0 mm 1 mps 722 mmHg 92%
06:00 +13°C° 0 mm 1 mps 722 mmHg 89%
07:00 +15°C° 0 mm 1 mps 723 mmHg 86%
08:00 +16°C° 0 mm 1 mps 723 mmHg 81%
09:00 +17°C° 0 mm 2 mps 723 mmHg 76%
10:00 +18°C° 0 mm 2 mps 723 mmHg 71%
11:00 +19°C° 0.2 mm 2 mps 723 mmHg 69%
12:00 +20°C° 0.2 mm 2 mps 723 mmHg 68%
13:00 +21°C° 0.2 mm 3 mps 723 mmHg 66%
14:00 +21°C° 0.3 mm 3 mps 723 mmHg 66%
15:00 +21°C° 0.3 mm 3 mps 723 mmHg 67%
16:00 +21°C° 0.3 mm 3 mps 723 mmHg 68%
17:00 +19°C° 0.3 mm 2 mps 723 mmHg 73%
18:00 +19°C° 0.3 mm 1 mps 722 mmHg 79%
19:00 +18°C° 0.3 mm 1 mps 722 mmHg 84%
20:00 +16°C° 0 mm 1 mps 722 mmHg 86%
21:00 +15°C° 0 mm 1 mps 723 mmHg 87%
22:00 +14°C° 0 mm 1 mps 723 mmHg 89%
23:00 +13°C° 0 mm 1 mps 722 mmHg 89%

19 July, Sunday

Time Temperature Precipitation Wind Pressure Humidity
00:00 +13°C° 0 mm 1 mps 722 mmHg 89%
01:00 +13°C° 0 mm 1 mps 722 mmHg 90%
02:00 +13°C° 0 mm 1 mps 722 mmHg 90%
03:00 +12°C° 0 mm 1 mps 722 mmHg 91%
04:00 +12°C° 0 mm 1 mps 722 mmHg 91%
05:00 +14°C° 0 mm 1 mps 722 mmHg 89%
06:00 +15°C° 0 mm 1 mps 722 mmHg 87%
07:00 +18°C° 0 mm 1 mps 722 mmHg 84%
08:00 +18°C° 0 mm 2 mps 723 mmHg 80%
09:00 +20°C° 0 mm 2 mps 723 mmHg 75%
10:00 +21°C° 0 mm 3 mps 723 mmHg 71%
11:00 +22°C° 0.1 mm 3 mps 723 mmHg 68%
12:00 +22°C° 0.1 mm 3 mps 722 mmHg 66%
13:00 +24°C° 0.1 mm 3 mps 722 mmHg 63%
14:00 +24°C° 0.1 mm 3 mps 722 mmHg 64%
15:00 +24°C° 0.1 mm 3 mps 722 mmHg 64%
16:00 +24°C° 0.1 mm 3 mps 722 mmHg 64%
17:00 +23°C° 0.1 mm 2 mps 722 mmHg 69%
18:00 +22°C° 0.1 mm 1 mps 722 mmHg 75%
19:00 +21°C° 0.1 mm 1 mps 722 mmHg 80%
20:00 +20°C° 0 mm 1 mps 722 mmHg 81%
21:00 +17°C° 0 mm 0 mps 722 mmHg 83%
22:00 +15°C° 0 mm 0 mps 722 mmHg 85%
23:00 +15°C° 0 mm 0 mps 722 mmHg 84%

20 July, Monday

Time Temperature Precipitation Wind Pressure Humidity
00:00 +15°C° 0 mm 0 mps 722 mmHg 84%
01:00 +15°C° 0 mm 0 mps 722 mmHg 84%
02:00 +16°C° 0 mm 1 mps 722 mmHg 86%
03:00 +15°C° 0 mm 1 mps 722 mmHg 88%
04:00 +15°C° 0 mm 1 mps 722 mmHg 90%
05:00 +16°C° 0 mm 1 mps 722 mmHg 87%
06:00 +18°C° 0 mm 1 mps 723 mmHg 84%
07:00 +18°C° 0 mm 2 mps 723 mmHg 82%
08:00 +19°C° 0.1 mm 2 mps 723 mmHg 78%
09:00 +20°C° 0.1 mm 3 mps 723 mmHg 75%
10:00 +21°C° 0.1 mm 3 mps 723 mmHg 72%
11:00 +22°C° 0.3 mm 3 mps 723 mmHg 72%
12:00 +22°C° 0.3 mm 3 mps 723 mmHg 73%
13:00 +22°C° 0.3 mm 3 mps 724 mmHg 73%
14:00 +22°C° 0.7 mm 3 mps 723 mmHg 75%
15:00 +21°C° 0.7 mm 3 mps 723 mmHg 76%
16:00 +21°C° 0.7 mm 3 mps 723 mmHg 78%
17:00 +20°C° 0.6 mm 3 mps 723 mmHg 81%
18:00 +19°C° 0.6 mm 3 mps 723 mmHg 84%
19:00 +18°C° 0.6 mm 3 mps 723 mmHg 87%
20:00 +17°C° 0 mm 3 mps 724 mmHg 88%
21:00 +16°C° 0 mm 3 mps 724 mmHg 89%
22:00 +14°C° 0 mm 3 mps 724 mmHg 89%
23:00 +14°C° 0 mm 2 mps 724 mmHg 88%
Show more